• In Deutschland
  • Länderverzeichnis
  • Für 7 Tage
  • Wassertemperatur
  • Satellitenkarten
  • Wetterkarte
  • Widgets
  • user-avatar
    Anmelden

    Stündliche Wetter Deggendorf

    Heute, 21 Juni, Donnerstag

    Zeit Temperatur Niederschläge Wind Luftdruck Luftfeuchtigkeit
    00:00 +18°C° 0 mm 0 m/S 734 mmHg 87%
    01:00 +20°C° 0 mm 1 m/S 734 mmHg 85%
    02:00 +20°C° 0 mm 1 m/S 733 mmHg 87%
    03:00 +19°C° 0 mm 1 m/S 733 mmHg 88%
    04:00 +19°C° 0 mm 1 m/S 733 mmHg 89%
    05:00 +20°C° 0 mm 1 m/S 733 mmHg 85%
    06:00 +22°C° 0 mm 1 m/S 733 mmHg 80%
    07:00 +23°C° 0 mm 1 m/S 732 mmHg 76%
    08:00 +25°C° 0,1 mm 2 m/S 732 mmHg 71%
    09:00 +26°C° 0,1 mm 2 m/S 732 mmHg 67%
    10:00 +28°C° 0,1 mm 3 m/S 731 mmHg 62%
    11:00 +28°C° 0,6 mm 3 m/S 731 mmHg 63%
    12:00 +28°C° 0,6 mm 4 m/S 731 mmHg 64%
    13:00 +28°C° 0,6 mm 4 m/S 730 mmHg 65%
    14:00 +28°C° 0,3 mm 5 m/S 730 mmHg 62%
    15:00 +28°C° 0,3 mm 5 m/S 730 mmHg 59%
    16:00 +28°C° 0,3 mm 5 m/S 731 mmHg 55%
    17:00 +26°C° 0,1 mm 5 m/S 731 mmHg 63%
    18:00 +22°C° 0,1 mm 5 m/S 732 mmHg 71%
    19:00 +20°C° 0,1 mm 5 m/S 732 mmHg 79%
    20:00 +18°C° 0 mm 4 m/S 733 mmHg 78%
    21:00 +17°C° 0 mm 4 m/S 734 mmHg 77%
    22:00 +14°C° 0 mm 3 m/S 734 mmHg 75%
    23:00 +13°C° 0 mm 3 m/S 735 mmHg 74%

    Morgen, 22 Juni, Freitag

    Zeit Temperatur Niederschläge Wind Luftdruck Luftfeuchtigkeit
    00:00 +13°C° 0 mm 2 m/S 735 mmHg 73%
    01:00 +12°C° 0 mm 2 m/S 736 mmHg 72%
    02:00 +10°C° 0 mm 2 m/S 736 mmHg 77%
    03:00 +9°C° 0 mm 2 m/S 736 mmHg 81%
    04:00 +7°C° 0 mm 2 m/S 736 mmHg 86%
    05:00 +9°C° 0 mm 2 m/S 736 mmHg 81%
    06:00 +10°C° 0 mm 3 m/S 737 mmHg 77%
    07:00 +11°C° 0 mm 4 m/S 737 mmHg 72%
    08:00 +12°C° 0 mm 4 m/S 737 mmHg 67%
    09:00 +13°C° 0 mm 5 m/S 737 mmHg 61%
    10:00 +14°C° 0 mm 6 m/S 736 mmHg 55%
    11:00 +14°C° 0 mm 5 m/S 736 mmHg 57%
    12:00 +14°C° 0 mm 5 m/S 736 mmHg 60%
    13:00 +14°C° 0 mm 5 m/S 736 mmHg 62%
    14:00 +14°C° 0,1 mm 5 m/S 736 mmHg 62%
    15:00 +15°C° 0,1 mm 5 m/S 736 mmHg 63%
    16:00 +15°C° 0,1 mm 5 m/S 736 mmHg 63%
    17:00 +15°C° 0,1 mm 4 m/S 736 mmHg 66%
    18:00 +14°C° 0,1 mm 4 m/S 736 mmHg 70%
    19:00 +14°C° 0,1 mm 3 m/S 736 mmHg 73%
    20:00 +12°C° 0 mm 3 m/S 737 mmHg 78%
    21:00 +12°C° 0 mm 2 m/S 737 mmHg 84%
    22:00 +9°C° 0 mm 2 m/S 737 mmHg 89%
    23:00 +9°C° 0 mm 2 m/S 737 mmHg 91%

    übermorgen, 23 Juni, Samstag

    Zeit Temperatur Niederschläge Wind Luftdruck Luftfeuchtigkeit
    00:00 +8°C° 0 mm 2 m/S 738 mmHg 93%
    01:00 +8°C° 0 mm 2 m/S 738 mmHg 95%
    02:00 +8°C° 0 mm 2 m/S 738 mmHg 95%
    03:00 +7°C° 0 mm 2 m/S 738 mmHg 96%
    04:00 +7°C° 0 mm 2 m/S 738 mmHg 97%
    05:00 +8°C° 0 mm 2 m/S 738 mmHg 93%
    06:00 +10°C° 0 mm 2 m/S 738 mmHg 89%
    07:00 +12°C° 0 mm 2 m/S 738 mmHg 84%
    08:00 +12°C° 0 mm 3 m/S 738 mmHg 80%
    09:00 +13°C° 0 mm 3 m/S 737 mmHg 75%
    10:00 +13°C° 0 mm 4 m/S 737 mmHg 70%
    11:00 +15°C° 0 mm 4 m/S 737 mmHg 63%
    12:00 +17°C° 0 mm 4 m/S 737 mmHg 57%
    13:00 +18°C° 0 mm 4 m/S 737 mmHg 50%
    14:00 +18°C° 0 mm 4 m/S 736 mmHg 51%
    15:00 +18°C° 0 mm 4 m/S 736 mmHg 52%
    16:00 +18°C° 0 mm 3 m/S 736 mmHg 54%
    17:00 +17°C° 0 mm 3 m/S 736 mmHg 60%
    18:00 +17°C° 0 mm 3 m/S 736 mmHg 65%
    19:00 +16°C° 0 mm 2 m/S 736 mmHg 71%
    20:00 +14°C° 0 mm 2 m/S 736 mmHg 75%
    21:00 +13°C° 0 mm 2 m/S 736 mmHg 78%
    22:00 +12°C° 0 mm 2 m/S 737 mmHg 81%
    23:00 +11°C° 0 mm 1 m/S 736 mmHg 84%

    24 Juni, Sonntag

    Zeit Temperatur Niederschläge Wind Luftdruck Luftfeuchtigkeit
    00:00 +10°C° 0 mm 1 m/S 736 mmHg 87%
    01:00 +10°C° 0 mm 1 m/S 736 mmHg 89%
    02:00 +9°C° 0 mm 1 m/S 736 mmHg 90%
    03:00 +9°C° 0 mm 1 m/S 736 mmHg 91%
    04:00 +9°C° 0 mm 1 m/S 736 mmHg 92%
    05:00 +10°C° 0 mm 1 m/S 736 mmHg 87%
    06:00 +12°C° 0 mm 1 m/S 736 mmHg 82%
    07:00 +13°C° 0 mm 1 m/S 736 mmHg 78%
    08:00 +14°C° 0,1 mm 1 m/S 736 mmHg 74%
    09:00 +15°C° 0,1 mm 2 m/S 736 mmHg 71%
    10:00 +16°C° 0,1 mm 2 m/S 736 mmHg 67%
    11:00 +17°C° 0,2 mm 2 m/S 736 mmHg 69%
    12:00 +17°C° 0,2 mm 2 m/S 735 mmHg 70%
    13:00 +17°C° 0,2 mm 2 m/S 735 mmHg 71%
    14:00 +18°C° 0,1 mm 2 m/S 735 mmHg 68%
    15:00 +18°C° 0,1 mm 2 m/S 735 mmHg 66%
    16:00 +20°C° 0,1 mm 1 m/S 735 mmHg 63%
    17:00 +19°C° 0,2 mm 1 m/S 735 mmHg 70%
    18:00 +18°C° 0,2 mm 1 m/S 735 mmHg 76%
    19:00 +16°C° 0,2 mm 1 m/S 735 mmHg 82%
    20:00 +15°C° 0,1 mm 1 m/S 735 mmHg 85%
    21:00 +14°C° 0,1 mm 1 m/S 735 mmHg 89%
    22:00 +12°C° 0,1 mm 1 m/S 735 mmHg 92%
    23:00 +12°C° 0 mm 1 m/S 735 mmHg 93%

    25 Juni, Montag

    Zeit Temperatur Niederschläge Wind Luftdruck Luftfeuchtigkeit
    00:00 +11°C° 0 mm 1 m/S 735 mmHg 94%
    01:00 +11°C° 0 mm 1 m/S 735 mmHg 94%
    02:00 +11°C° 0 mm 1 m/S 735 mmHg 95%
    03:00 +10°C° 0 mm 1 m/S 735 mmHg 95%
    04:00 +10°C° 0 mm 1 m/S 735 mmHg 95%
    05:00 +11°C° 0 mm 1 m/S 735 mmHg 93%
    06:00 +13°C° 0 mm 1 m/S 736 mmHg 91%
    07:00 +14°C° 0 mm 1 m/S 736 mmHg 88%
    08:00 +15°C° 0,3 mm 1 m/S 736 mmHg 83%
    09:00 +18°C° 0,3 mm 1 m/S 736 mmHg 78%
    10:00 +19°C° 0,3 mm 1 m/S 736 mmHg 73%
    11:00 +20°C° 0,5 mm 1 m/S 735 mmHg 70%
    12:00 +20°C° 0,5 mm 2 m/S 735 mmHg 67%
    13:00 +20°C° 0,5 mm 2 m/S 735 mmHg 65%
    14:00 +20°C° 0,4 mm 2 m/S 735 mmHg 64%
    15:00 +21°C° 0,4 mm 2 m/S 735 mmHg 64%
    16:00 +21°C° 0,4 mm 2 m/S 735 mmHg 63%
    17:00 +20°C° 0,2 mm 2 m/S 735 mmHg 68%
    18:00 +19°C° 0,2 mm 2 m/S 735 mmHg 73%
    19:00 +18°C° 0,2 mm 2 m/S 735 mmHg 78%
    20:00 +17°C° 0,1 mm 2 m/S 736 mmHg 83%
    21:00 +15°C° 0,1 mm 2 m/S 736 mmHg 87%
    22:00 +13°C° 0,1 mm 2 m/S 736 mmHg 91%
    23:00 +13°C° 0 mm 1 m/S 736 mmHg 92%

    26 Juni, Dienstag

    Zeit Temperatur Niederschläge Wind Luftdruck Luftfeuchtigkeit
    00:00 +13°C° 0 mm 1 m/S 736 mmHg 93%
    01:00 +12°C° 0 mm 1 m/S 736 mmHg 94%
    02:00 +12°C° 0 mm 1 m/S 736 mmHg 94%
    03:00 +11°C° 0 mm 1 m/S 736 mmHg 95%
    04:00 +11°C° 0 mm 1 m/S 736 mmHg 95%
    05:00 +13°C° 0 mm 1 m/S 737 mmHg 91%
    06:00 +14°C° 0 mm 1 m/S 737 mmHg 87%
    07:00 +16°C° 0 mm 1 m/S 737 mmHg 83%
    08:00 +18°C° 0 mm 2 m/S 737 mmHg 75%
    09:00 +19°C° 0 mm 2 m/S 737 mmHg 66%
    10:00 +21°C° 0 mm 3 m/S 737 mmHg 57%
    11:00 +22°C° 0,1 mm 3 m/S 737 mmHg 54%
    12:00 +24°C° 0,1 mm 3 m/S 736 mmHg 51%
    13:00 +24°C° 0,1 mm 3 m/S 736 mmHg 48%
    14:00 +24°C° 0,1 mm 3 m/S 736 mmHg 48%
    15:00 +24°C° 0,1 mm 3 m/S 736 mmHg 49%
    16:00 +24°C° 0,1 mm 3 m/S 736 mmHg 49%
    17:00 +22°C° 0 mm 3 m/S 736 mmHg 55%
    18:00 +21°C° 0 mm 2 m/S 736 mmHg 61%
    19:00 +20°C° 0 mm 2 m/S 736 mmHg 66%
    20:00 +18°C° 0 mm 2 m/S 737 mmHg 71%
    21:00 +17°C° 0 mm 2 m/S 737 mmHg 76%
    22:00 +15°C° 0 mm 2 m/S 737 mmHg 80%
    23:00 +14°C° 0 mm 1 m/S 737 mmHg 83%
    Mehr zeigen